Location: Central Coast
(33.3208°S, 151.2336°E)
Time: 14:02:00
(UTC+11:00)

N. Korean satellite - Pass Details

Date: 17 October 2017
Orbit: 459 x 517 km, 97.2° (Epoch: 20 October)

Event Time Altitude Azimuth Distance (km) Brightness Sun altitude
Rises 20:16:31 0° 182° (S) 2,668 10.7 -14.2°
Reaches altitude 10° 20:18:51 10° 194° (SSW) 1,767 9.9 -14.7°
Maximum altitude 20:22:07 28° 253° (WSW) 1,005 9.0 -15.3°
Drops below altitude 10° 20:25:19 10° 312° (NW) 1,725 9.7 -15.9°
Sets 20:27:34 0° 324° (NW) 2,591 10.4 -16.4°
